Location: Unspecified
(48.2082°N, 0.0000°E)
Time: 21:43:01
(UTC+00:00)

Transit 4A - Pass Details

Date: 22 June 2019
Orbit: 867 x 978 km, 66.8° (Epoch: 21 October)

Event Time Altitude Azimuth Distance (km) Brightness Sun altitude
Rises 17:59:28 0° 318° (NW) 3,682 12.0 17.7°
Reaches altitude 10° 18:02:25 10° 307° (NW) 2,723 12.0 17.2°
Maximum altitude 18:07:35 27° 252° (WSW) 1,767 10.5 16.4°
Drops below altitude 10° 18:12:38 10° 198° (SSW) 2,662 10.4 15.6°
Sets 18:15:31 0° 186° (S) 3,584 10.8 15.1°
